Home   Weather   Panama City   Past weeks
Flag for USA

Past Weather in Panama City, Florida, USA — Yesterday and Last 2 Weeks

Now
89 °F

Partly sunny.


Feels Like: 99 °F
Forecast: 90 / 77 °F
Wind: 7 mph from West

Location: Tyndall Air Force Base

Current Time: Jul 16, 2019 at 1:41:59 pm

Latest Report: Jul 16, 2019 at 12:56 pm


Visibility: 10 mi

Pressure: 30.14 "Hg

Humidity: 62%

Dew Point: 75 °F

Location of Panama CityLocation

Past Weather in Panama City — Graph

°F

Panama City Temperature Yesterday

Maximum temperature yesterday: 89 °F (at 12:56 pm)
Minimum temperature yesterday: 78 °F (at 4:56 am)
Average temperature yesterday: 83 °F

High & Low Weather Summary for the Past Weeks

 TemperatureHumidityPressure
High94 °F (Jul 5, 12:56 pm)96% (Jul 15, 5:56 am)30.15 "Hg (Jul 15, 5:56 am)
Low72 °F (Jul 12, 9:16 pm)48% (Jul 5, 12:56 pm)29.86 "Hg (Jul 8, 5:56 pm)
Average82 °F81%29.99 "Hg
* Reported Jul 1 11:56 am — Jul 16 11:56 am, Panama City. Weather by CustomWeather, © 2019

Note: Actual official high and low records may vary slightly from our data, if they occured in-between our weather recording intervals... More about our weather records

Advertising

Panama City Weather History for the Previous 24 Hours

Scroll right to see more
 ConditionsComfort  
Time TempWeatherWind HumidityBarometerVisibility
11:56 am
Tue, Jul 16
90 °FSunny.8 mph65%30.15 "Hg9 mi
10:56 am89 °FSunny.7 mph61%30.15 "Hg9 mi
9:56 am88 °FSunny.5 mph67%30.15 "Hg9 mi
8:56 am85 °FSunny.No wind82%30.14 "Hg9 mi
7:56 am82 °FSunny.No wind89%30.14 "Hg9 mi
6:56 am79 °FSunny.No wind95%30.12 "Hg8 mi
6:31 am79 °FFog.3 mph94%30.11 "Hg5 mi
6:11 am77 °FFog.5 mph94%30.11 "Hg4 mi
5:56 am77 °FFog.3 mph96%30.11 "Hg5 mi
5:36 am77 °FFog.No wind94%30.10 "Hg4 mi
5:21 am77 °FFog.No wind94%30.10 "Hg2 mi
4:56 am77 °FFog.No wind96%30.09 "Hg6 mi
4:21 am77 °FFog.No wind94%30.08 "Hg1 mi
3:56 am78 °FFog.No wind95%30.08 "Hg6 mi
2:56 am78 °FFog.No wind96%30.07 "Hg6 mi
1:56 am78 °FFog.6 mph96%30.08 "Hg6 mi
12:56 am79 °FFog.5 mph96%30.10 "Hg6 mi
11:56 pm
Mon, Jul 15
79 °FClear.3 mph95%30.10 "Hg8 mi
10:56 pm80 °FFog.No wind94%30.10 "Hg6 mi
9:56 pm81 °FClear.No wind92%30.10 "Hg8 mi
8:56 pm82 °FClear.3 mph90%30.10 "Hg8 mi
7:56 pm83 °FClear.5 mph87%30.09 "Hg8 mi
6:56 pm85 °FClear.7 mph82%30.09 "Hg8 mi
5:56 pm85 °FSunny.6 mph79%30.08 "Hg8 mi
4:56 pm86 °FSunny.8 mph80%30.08 "Hg9 mi
3:56 pm86 °FSunny.9 mph78%30.09 "Hg9 mi
2:56 pm87 °FSunny.12 mph76%30.10 "Hg9 mi
1:56 pm89 °FPassing clouds.12 mph71%30.10 "Hg9 mi
Weather by CustomWeather, © 2019

See weather overview

LIVE PARTIAL LUNAR ECLIPSE – Watch the eclipse as it happens